EW5678 Weather Reports


Display with metric or nautical units.
time (UTC)temp
F
wind
direction
speed
MPH
gust
MPH
rain 1hr
in
rain 24hr
in
rain mn
in
humidity
%
barometer
mb
20200526180338 71 47 5.0 10.0 0.00 0.00 0.00 80 1005.9
20200526175438 71 47 3.0 8.0 0.00 0.00 0.00 80 1006.0
20200526174538 70 47 3.0 8.0 0.00 0.00 0.00 82 1006.0
20200526173638 69 47 5.0 9.0 0.00 0.00 0.00 84 1006.1
20200526172738 69 47 3.0 7.0 0.00 0.00 0.00 84 1006.2
20200526171838 69 47 4.0 8.0 0.00 0.00 0.00 86 1006.3
20200526170938 69 47 3.0 8.0 0.00 0.00 0.00 86 1006.4
20200526170038 68 47 3.0 6.0 0.00 0.00 0.00 87 1006.6
20200526165138 68 47 2.0 6.0 0.00 0.00 0.00 87 1006.6
20200526164238 67 47 2.0 5.0 0.00 0.00 0.00 88 1006.7
20200526163338 67 47 1.0 4.0 0.00 0.00 0.00 89 1006.8
20200526162438 66 47 1.0 5.0 0.00 0.00 0.00 91 1006.9
20200526161538 65 47 1.0 4.0 0.00 0.00 0.00 92 1006.9
20200526160638 65 47 1.0 4.0 0.00 0.00 0.00 93 1006.9
20200526155738 66 47 1.0 4.0 0.00 0.00 0.00 92 1006.9
20200526154838 65 47 1.0 4.0 0.00 0.00 0.00 94 1006.9
20200526153938 65 47 1.0 4.0 0.00 0.00 0.00 93 1006.9
20200526153038 64 47 1.0 4.0 0.00 0.00 0.00 95 1006.9
20200526152138 63 47 1.0 3.0 0.00 0.00 0.00 97 1006.8
20200526151238 61 46 2.0 6.0 0.00 0.00 0.00 97 1006.8
20200526150338 61 47 2.0 5.0 0.00 0.00 0.00 97 1006.9
20200526145439 62 47 1.0 3.0 0.00 0.00 0.00 99 1006.9
20200526144538 61 46 1.0 3.0 0.00 0.00 0.00 99 1006.8
20200526143638 60 46 2.0 3.0 0.00 0.00 0.00 99 1006.9
20200526142738 60 46 2.0 5.0 0.00 0.00 0.00 99 1006.9
20200526141838 60 46 2.0 4.0 0.00 0.00 0.00 100 1006.9
20200526140938 59 47 3.0 6.0 0.00 0.00 0.00 100 1006.9
20200526140039 59 47 4.0 7.0 0.00 0.01 0.00 100 1006.8
20200526135138 60 46 2.0 6.0 0.00 0.01 0.00 100 1006.7
20200526134238 59 46 2.0 4.0 0.00 0.01 0.00 100 1006.5
20200526133338 59 46 2.0 4.0 0.00 0.02 0.00 100 1006.5
20200526132438 59 47 2.0 5.0 0.00 0.02 0.00 100 1006.6
20200526131538 58 47 2.0 4.0 0.00 0.02 0.00 100 1006.5
20200526130638 58 47 3.0 4.0 0.00 0.02 0.00 100 1006.5
20200526125738 58 47 3.0 5.0 0.00 0.02 0.00 100 1006.5
20200526124838 58 47 4.0 7.0 0.00 0.02 0.00 100 1006.6
20200526123938 58 47 5.0 6.0 0.00 0.02 0.00 100 1006.6
20200526123038 59 47 3.0 5.0 0.00 0.02 0.00 100 1006.6
20200526122138 60 47 0.0 4.0 0.00 0.02 0.00 100 1006.5
20200526121238 60 47 1.0 3.0 0.00 0.03 0.00 100 1006.5
20200526120338 60 47 0.0 2.0 0.00 0.03 0.00 100 1006.4
20200526115438 60 47 1.0 3.0 0.00 0.03 0.00 100 1006.3
20200526114538 59 0 0.0 0.0 0.00 0.03 0.00 100 1006.4
20200526113638 59 46 0.0 1.0 0.00 0.03 0.00 100 1006.4
20200526112738 59 46 0.0 2.0 0.00 0.03 0.00 100 1006.4
20200526111838 58 46 2.0 3.0 0.00 0.03 0.00 100 1006.4
20200526110938 58 46 2.0 4.0 0.00 0.03 0.00 100 1006.5
20200526110038 58 46 2.0 4.0 0.00 0.03 0.00 100 1006.4
20200526105138 58 47 0.0 3.0 0.00 0.03 0.00 100 1006.4
20200526104238 58 46 1.0 2.0 0.00 0.03 0.00 100 1006.4
20200526103338 58 46 0.0 1.0 0.00 0.03 0.00 100 1006.4
20200526102438 58 46 0.0 1.0 0.00 0.03 0.00 100 1006.3
20200526101538 58 47 0.0 1.0 0.00 0.03 0.00 100 1006.3
20200526100638 58 46 0.0 1.0 0.00 0.03 0.00 100 1006.2
20200526095738 58 0 0.0 0.0 0.00 0.03 0.00 100 1006.2
20200526094838 58 0 0.0 0.0 0.00 0.03 0.00 100 1006.1
20200526093938 58 0 0.0 0.0 0.00 0.03 0.00 100 1006.0
20200526093038 58 47 0.0 1.0 0.00 0.03 0.00 100 1005.8
20200526092138 58 46 0.0 2.0 0.00 0.03 0.00 100 1005.9
20200526091238 58 0 0.0 0.0 0.00 0.03 0.00 100 1005.7
20200526090338 58 46 1.0 1.0 0.00 0.03 0.00 100 1005.8
20200526085438 58 46 1.0 2.0 0.00 0.03 0.00 100 1005.5
20200526084538 58 47 0.0 1.0 0.00 0.03 0.00 100 1005.5
20200526083638 58 46 0.0 1.0 0.00 0.03 0.00 100 1005.4
20200526082738 58 46 0.0 2.0 0.00 0.03 0.00 100 1005.4
20200526081839 58 46 2.0 3.0 0.00 0.03 0.00 100 1005.3
20200526080938 59 46 2.0 3.0 0.00 0.03 0.00 100 1005.2
20200526080038 59 47 3.0 4.0 0.00 0.03 0.00 100 1005.2
20200526075138 58 46 5.0 6.0 0.00 0.03 0.00 100 1005.2
20200526074240 58 47 6.0 7.0 0.00 0.03 0.00 100 1005.2
20200526073338 58 46 5.0 6.0 0.00 0.03 0.00 100 1005.2
20200526072438 58 46 5.0 6.0 0.00 0.03 0.00 100 1005.3
20200526071538 58 46 5.0 6.0 0.00 0.03 0.00 100 1005.4
20200526070638 58 46 5.0 6.0 0.00 0.03 0.00 100 1005.5
20200526065738 58 46 5.0 6.0 0.00 0.03 0.00 100 1005.5
20200526064838 58 46 4.0 6.0 0.00 0.03 0.00 99 1005.4
20200526063938 58 46 2.0 3.0 0.00 0.03 0.00 99 1005.5
20200526063038 59 47 1.0 2.0 0.00 0.03 0.00 99 1005.6
20200526062138 59 46 0.0 2.0 0.00 0.03 0.00 99 1005.6
20200526061238 60 46 0.0 1.0 0.00 0.03 0.00 99 1005.7
20200526060338 60 46 0.0 1.0 0.00 0.03 0.00 100 1005.7
20200526055438 60 46 0.0 1.0 0.00 0.03 0.00 99 1005.7
20200526054538 60 46 0.0 1.0 0.00 0.03 0.00 99 1005.9
20200526053638 60 46 0.0 2.0 0.00 0.03 0.00 100 1005.9
20200526052738 60 46 0.0 2.0 0.00 0.03 0.00 99 1005.8
20200526051838 60 46 0.0 1.0 0.00 0.03 0.00 100 1005.7
20200526050938 60 46 0.0 2.0 0.00 0.03 0.00 100 1005.7
20200526050038 60 47 1.0 3.0 0.00 0.03 0.00 99 1005.7
20200526045138 60 47 1.0 3.0 0.00 0.03 0.00 100 1005.9
20200526044238 60 47 1.0 2.0 0.00 0.03 0.00 99 1005.8
20200526043338 60 47 0.0 2.0 0.00 0.03 0.00 99 1005.8
20200526042438 61 47 0.0 1.0 0.00 0.03 0.00 99 1005.8
20200526041538 61 0 0.0 0.0 0.00 0.03 0.00 99 1006.0
20200526040638 61 47 0.0 3.0 0.00 0.03 0.00 99 1006.0
20200526035738 61 47 0.0 2.0 0.00 0.03 0.00 99 1005.9
20200526034838 61 47 1.0 3.0 0.00 0.03 0.00 99 1005.8
20200526033938 60 46 2.0 4.0 0.00 0.03 0.00 99 1005.7
20200526033038 60 47 1.0 4.0 0.00 0.03 0.00 99 1005.6
20200526032138 60 47 2.0 6.0 0.00 0.03 0.00 99 1005.6
20200526031238 60 46 2.0 4.0 0.00 0.03 0.00 99 1005.6
20200526030338 60 46 2.0 6.0 0.00 0.03 0.00 98 1005.6
20200526025440 60 46 5.0 7.0 0.00 0.03 0.00 98 1005.5
20200526024538 60 47 4.0 10.0 0.00 0.03 0.00 98 1005.6
20200526023638 60 47 2.0 7.0 0.00 0.03 0.00 97 1005.6
20200526022738 61 47 2.0 6.0 0.00 0.03 0.00 97 1005.6
20200526021838 61 47 1.0 3.0 0.00 0.03 0.00 96 1005.7
20200526020938 61 46 0.0 2.0 0.00 0.03 0.00 97 1005.7
20200526020038 61 47 1.0 4.0 0.00 0.03 0.00 97 1005.6
20200526015138 61 47 2.0 5.0 0.00 0.03 0.00 97 1005.5
20200526014238 61 46 2.0 5.0 0.00 0.03 0.00 97 1005.4
20200526013338 61 47 3.0 6.0 0.00 0.03 0.00 97 1005.3
20200526012438 61 46 4.0 7.0 0.00 0.03 0.00 96 1005.4
20200526011538 61 46 4.0 8.0 0.00 0.03 0.00 95 1005.4
20200526010638 61 47 3.0 7.0 0.00 0.03 0.00 94 1005.1
20200526005738 60 47 1.0 4.0 0.00 0.03 0.00 92 1005.1
20200526004838 60 46 1.0 3.0 0.00 0.03 0.00 92 1005.1
20200526003938 61 46 2.0 4.0 0.00 0.03 0.00 91 1005.1
20200526003040 61 46 1.0 4.0 0.00 0.03 0.00 91 1005.1
20200526002138 60 46 2.0 5.0 0.00 0.03 0.00 91 1005.0
20200526001238 60 46 3.0 5.0 0.00 0.03 0.00 91 1004.9
20200526000338 61 46 3.0 5.0 0.00 0.03 0.00 90 1004.9
20200525235438 62 46 3.0 5.0 0.00 0.03 0.03 89 1004.9
20200525234538 62 47 2.0 5.0 0.00 0.03 0.03 88 1004.6
20200525233638 63 46 3.0 6.0 0.00 0.03 0.03 88 1004.5
20200525232738 63 46 3.0 6.0 0.00 0.03 0.03 88 1004.6
20200525231838 63 47 3.0 6.0 0.00 0.03 0.03 88 1004.7
20200525230938 63 47 4.0 7.0 0.00 0.03 0.03 87 1004.7
20200525230038 63 46 6.0 10.0 0.00 0.03 0.03 88 1004.8
20200525225138 63 46 7.0 10.0 0.00 0.03 0.03 87 1004.9
20200525224238 64 46 5.0 9.0 0.00 0.03 0.03 86 1004.7
20200525223339 64 47 8.0 11.0 0.00 0.03 0.03 86 1004.6
20200525222438 64 46 5.0 10.0 0.00 0.03 0.03 84 1004.7
20200525221538 65 47 4.0 10.0 0.00 0.03 0.03 84 1004.5
20200525220638 64 46 9.0 12.0 0.00 0.03 0.03 85 1004.6
20200525215738 65 46 9.0 12.0 0.00 0.03 0.03 84 1004.7
20200525214838 66 46 6.0 11.0 0.00 0.03 0.03 81 1004.6
20200525213938 67 46 6.0 10.0 0.00 0.03 0.03 82 1004.5
20200525213038 66 46 6.0 12.0 0.00 0.03 0.03 83 1004.6
20200525212138 66 46 5.0 9.0 0.00 0.03 0.03 82 1004.6
20200525211238 68 47 3.0 9.0 0.00 0.03 0.03 80 1004.8
20200525210338 67 47 4.0 9.0 0.00 0.03 0.03 81 1004.8
20200525205438 69 47 2.0 6.0 0.00 0.03 0.03 81 1005.0
20200525204538 69 47 3.0 6.0 0.00 0.03 0.03 81 1005.2
20200525203638 69 47 2.0 6.0 0.00 0.03 0.03 80 1005.2
20200525202738 69 47 2.0 8.0 0.00 0.03 0.03 80 1005.4
20200525201838 67 47 3.0 8.0 0.00 0.03 0.03 84 1005.4
20200525200938 67 47 3.0 8.0 0.00 0.03 0.03 84 1005.6
20200525200038 66 47 3.0 6.0 0.00 0.03 0.03 84 1005.7
20200525195138 66 47 3.0 7.0 0.00 0.03 0.03 84 1005.9
20200525194238 65 47 3.0 5.0 0.00 0.03 0.03 85 1006.0
20200525193338 65 47 4.0 6.0 0.00 0.03 0.03 85 1006.1
20200525192438 64 47 3.0 6.0 0.00 0.03 0.03 85 1006.2
20200525191538 64 47 3.0 5.0 0.00 0.03 0.03 85 1006.4
20200525190638 64 47 3.0 6.0 0.00 0.03 0.03 85 1006.5
20200525185739 63 47 2.0 5.0 0.00 0.03 0.03 87 1006.5
20200525184838 63 47 3.0 6.0 0.00 0.03 0.03 88 1006.8
20200525183938 62 47 4.0 7.0 0.00 0.03 0.03 88 1006.7
20200525183038 62 47 4.0 9.0 0.00 0.03 0.03 89 1006.8
20200525182138 62 47 3.0 9.0 0.00 0.03 0.03 89 1007.0
20200525181238 60 46 4.0 8.0 0.00 0.03 0.03 91 1007.1